K5KVN-2 Weather Reports


Display with metric or nautical units.
time (UTC)temp
F
wind
direction
speed
MPH
gust
MPH
rain 1hr
in
rain 24hr
in
rain mn
in
humidity
%
barometer
mb
20260508182107 74 196 9.0 16.0 0.00 0.00 0.00 51 1011.4
20260508181549 73 166 7.0 13.0 0.00 0.00 0.00 51 1011.5
20260508180537 73 200 5.0 11.0 0.00 0.00 0.00 48 1011.8
20260508175103 72 176 8.0 14.0 0.00 0.00 0.00 52 1012.0
20260508174103 72 235 8.0 16.0 0.00 0.00 0.00 49 1012.1
20260508173552 72 174 7.0 17.0 0.00 0.00 0.00 51 1012.4
20260508172542 71 164 7.0 12.0 0.00 0.00 0.00 50 1012.5
20260508171103 71 186 6.0 16.0 0.00 0.00 0.00 50 1012.8
20260508165103 71 189 7.0 16.0 0.00 0.00 0.00 51 1013.4
20260508164103 71 186 9.0 18.0 0.00 0.00 0.00 49 1013.6
20260508163103 71 180 9.0 18.0 0.00 0.00 0.00 51 1013.4
20260508162103 70 202 8.0 15.0 0.00 0.00 0.00 54 1013.6
20260508161102 70 175 8.0 15.0 0.00 0.00 0.00 56 1013.8
20260508155059 69 189 9.0 16.0 0.00 0.00 0.00 56 1014.2
20260508154101 68 169 11.0 16.0 0.00 0.00 0.00 59 1014.2
20260508153056 67 193 10.0 21.0 0.00 0.00 0.00 60 1014.3
20260508152054 67 213 7.0 15.0 0.00 0.00 0.00 62 1014.6
20260508151058 66 161 8.0 15.0 0.00 0.00 0.00 66 1014.6
20260508150544 66 179 8.0 14.0 0.00 0.00 0.00 67 1014.7
20260508145054 65 234 10.0 18.0 0.00 0.00 0.00 70 1014.8
20260508144050 64 175 8.0 16.0 0.00 0.00 0.00 68 1014.8
20260508143527 63 223 9.0 16.0 0.00 0.00 0.00 71 1014.8
20260508142051 62 157 11.0 23.0 0.00 0.00 0.00 72 1014.8
20260508141050 62 171 9.0 17.0 0.00 0.00 0.00 75 1014.9
20260508140051 61 179 7.0 13.0 0.00 0.00 0.00 77 1014.9
20260508135052 60 192 7.0 14.0 0.00 0.00 0.00 80 1015.0
20260508134528 59 180 6.0 14.0 0.00 0.00 0.00 81 1015.1
20260508133052 58 196 5.0 7.0 0.00 0.00 0.00 82 1015.0
20260508132048 57 165 5.0 10.0 0.00 0.00 0.00 83 1015.0
20260508131047 56 188 4.0 7.0 0.00 0.00 0.00 85 1015.1
20260508130042 54 184 2.0 4.0 0.00 0.00 0.00 84 1015.1
20260508125042 54 181 2.0 6.0 0.00 0.00 0.00 84 1015.0
20260508124042 53 209 0.0 0.0 0.00 0.00 0.00 84 1014.9
20260508123040 52 196 0.0 0.0 0.00 0.00 0.00 83 1014.9
20260508122038 51 183 0.0 0.0 0.00 0.00 0.00 86 1014.9
20260508121038 50 183 0.0 0.0 0.00 0.00 0.00 86 1014.8
20260508120517 49 242 0.0 0.0 0.00 0.00 0.00 86 1015.0
20260508115038 48 242 0.0 0.0 0.00 0.00 0.00 86 1014.9
20260508114034 47 171 0.0 0.0 0.00 0.00 0.00 88 1014.6
20260508113030 47 171 0.0 0.0 0.00 0.00 0.00 87 1014.6
20260508112031 47 171 0.0 0.0 0.00 0.00 0.00 88 1014.5
20260508110032 46 169 0.0 0.0 0.00 0.00 0.00 91 1014.2
20260508105031 45 169 0.0 0.0 0.00 0.00 0.00 91 1014.2
20260508104030 45 169 0.0 0.0 0.00 0.00 0.00 89 1014.2
20260508103033 46 169 0.0 0.0 0.00 0.00 0.00 89 1014.1
20260508102030 46 169 0.0 0.0 0.00 0.00 0.00 90 1014.1
20260508101029 46 169 0.0 0.0 0.00 0.00 0.00 88 1014.1
20260508100030 46 169 0.0 0.0 0.00 0.00 0.00 88 1014.1
20260508095029 46 169 0.0 0.0 0.00 0.00 0.00 88 1013.9
20260508094028 47 169 0.0 0.0 0.00 0.00 0.00 88 1013.9
20260508093029 47 169 0.0 0.0 0.00 0.00 0.00 87 1013.7
20260508092503 47 169 0.0 0.0 0.00 0.00 0.00 88 1013.7
20260508091028 47 169 0.0 0.0 0.00 0.00 0.00 88 1013.8
20260508090028 47 169 0.0 0.0 0.00 0.00 0.00 87 1013.9
20260508085030 47 169 0.0 0.0 0.00 0.00 0.00 86 1013.9
20260508084503 47 169 0.0 0.0 0.00 0.00 0.00 86 1013.9
20260508083029 48 169 0.0 0.0 0.00 0.00 0.00 85 1014.1
20260508082030 48 169 0.0 0.0 0.00 0.00 0.00 85 1014.2
20260508081028 49 169 0.0 0.0 0.00 0.00 0.00 85 1014.1
20260508080030 49 169 0.0 0.0 0.00 0.00 0.00 83 1014.4
20260508075030 49 169 0.0 0.0 0.00 0.00 0.00 83 1014.5
20260508074030 49 169 0.0 0.0 0.00 0.00 0.00 83 1014.4
20260508073028 49 169 0.0 0.0 0.00 0.00 0.00 84 1014.5
20260508072031 49 169 0.0 0.0 0.00 0.00 0.00 84 1014.6
20260508071457 50 169 0.0 0.0 0.00 0.00 0.00 83 1014.7
20260508070022 51 169 0.0 0.0 0.00 0.00 0.00 81 1014.8
20260508064022 51 169 0.0 0.0 0.00 0.00 0.00 81 1015.1
20260508063022 51 169 0.0 0.0 0.00 0.00 0.00 82 1015.1
20260508062023 50 169 0.0 0.0 0.00 0.00 0.00 82 1015.3
20260508061455 50 169 0.0 0.0 0.00 0.00 0.00 84 1015.4
20260508060023 49 169 0.0 0.0 0.00 0.00 0.00 85 1015.4
20260508055016 50 169 0.0 0.0 0.00 0.00 0.00 84 1015.4
20260508054457 50 169 0.0 0.0 0.00 0.00 0.00 83 1015.5
20260508053017 51 169 0.0 0.0 0.00 0.00 0.00 82 1015.3
20260508052017 51 169 0.0 0.0 0.00 0.00 0.00 81 1015.5
20260508051013 51 169 0.0 0.0 0.00 0.00 0.00 82 1015.5
20260508050015 50 169 0.0 0.0 0.00 0.00 0.00 84 1015.4
20260508045500 50 169 0.0 0.0 0.00 0.00 0.00 84 1015.4
20260508044009 50 169 0.0 0.0 0.00 0.00 0.00 83 1015.5
20260508043010 50 169 0.0 1.0 0.00 0.00 0.00 83 1015.7
20260508042009 51 169 0.0 1.0 0.00 0.00 0.00 83 1015.7
20260508041009 51 184 0.0 0.0 0.00 0.00 0.00 81 1015.9
20260508040009 52 184 0.0 3.0 0.00 0.00 0.00 79 1015.9
20260508035007 52 227 0.0 2.0 0.00 0.00 0.00 79 1016.0
20260508034013 53 180 0.0 2.0 0.00 0.00 0.00 78 1016.0
20260508033008 54 200 0.0 2.0 0.00 0.00 0.00 74 1015.9
20260508032009 53 147 0.0 0.0 0.00 0.00 0.00 75 1015.9
20260508031007 53 147 0.0 1.0 0.00 0.00 0.00 75 1015.7
20260508030002 53 266 0.0 0.0 0.00 0.00 0.00 76 1015.7
20260508025002 53 266 0.0 2.0 0.00 0.00 0.00 76 1015.6
20260508024004 54 238 0.0 3.0 0.00 0.00 0.00 77 1015.5
20260508023003 55 5 0.0 0.0 0.00 0.00 0.00 74 1015.4
20260508022003 55 5 1.0 2.0 0.00 0.00 0.00 70 1015.3
20260508021003 56 41 0.0 2.0 0.00 0.00 0.00 70 1015.3
20260508020437 57 103 0.0 0.0 0.00 0.00 0.00 65 1015.3
20260508015001 57 103 0.0 1.0 0.00 0.00 0.00 63 1015.1
20260508014002 59 99 0.0 0.0 0.00 0.00 0.00 63 1014.9
20260508013002 60 99 0.0 1.0 0.00 0.00 0.00 59 1014.8
20260508012002 60 120 0.0 1.0 0.00 0.00 0.00 58 1014.8
20260508011003 61 119 0.0 1.0 0.00 0.00 0.00 56 1014.6
20260508010001 63 260 0.0 1.0 0.00 0.00 0.00 53 1014.6
20260508005003 65 225 0.0 1.0 0.00 0.00 0.00 50 1014.6
20260508004003 65 225 1.0 2.0 0.00 0.00 0.00 51 1014.6
20260508003003 65 197 2.0 4.0 0.00 0.00 0.00 47 1014.8
20260508002002 66 186 2.0 5.0 0.00 0.00 0.00 49 1014.8
20260508001004 66 187 1.0 3.0 0.00 0.00 0.00 48 1014.8
20260508000438 65 193 2.0 5.0 0.00 0.00 0.00 49 1014.8
20260507235001 65 194 4.0 6.0 0.00 0.00 0.00 50 1014.7
20260507234001 65 219 3.0 10.0 0.00 0.00 0.00 47 1014.8
20260507233002 66 230 2.0 5.0 0.00 0.00 0.00 48 1014.6
20260507232001 66 194 5.0 9.0 0.00 0.00 0.00 48 1014.7
20260507231439 66 198 4.0 8.0 0.00 0.00 0.00 48 1014.9
20260507230442 66 216 3.0 8.0 0.00 0.00 0.00 47 1014.9
20260507225001 66 294 3.0 7.0 0.00 0.00 0.00 48 1015.0
20260507224002 66 170 4.0 10.0 0.00 0.00 0.00 47 1015.0
20260507223001 67 193 4.0 7.0 0.00 0.00 0.00 46 1015.2
20260507222001 66 184 2.0 9.0 0.00 0.00 0.00 47 1015.2
20260507221001 67 207 5.0 10.0 0.00 0.00 0.00 45 1015.4
20260507220001 67 223 4.0 11.0 0.00 0.00 0.00 46 1015.3
20260507214959 66 275 2.0 7.0 0.00 0.00 0.00 45 1015.5
20260507214000 67 211 5.0 12.0 0.00 0.00 0.00 44 1015.4
20260507213443 68 197 6.0 13.0 0.00 0.00 0.00 46 1015.4
20260507212000 67 167 6.0 10.0 0.00 0.00 0.00 47 1015.4
20260507210953 67 179 4.0 9.0 0.00 0.00 0.00 46 1015.7
20260507205951 66 192 4.0 10.0 0.00 0.00 0.00 45 1015.7
20260507204953 67 193 4.0 9.0 0.00 0.00 0.00 45 1016.0
20260507203952 66 209 4.0 12.0 0.00 0.00 0.00 44 1016.1
20260507202952 67 151 5.0 10.0 0.00 0.00 0.00 42 1016.3
20260507201951 67 252 4.0 9.0 0.00 0.00 0.00 42 1016.4
20260507201436 67 328 4.0 10.0 0.00 0.00 0.00 48 1016.3
20260507195954 66 226 7.0 13.0 0.00 0.00 0.00 44 1016.4
20260507194953 67 179 5.0 16.0 0.00 0.00 0.00 49 1016.7
20260507193947 66 236 3.0 9.0 0.00 0.00 0.00 45 1017.0
20260507192947 66 168 4.0 10.0 0.00 0.00 0.00 44 1017.0
20260507191946 66 155 4.0 10.0 0.00 0.00 0.00 46 1017.2
20260507190945 66 209 4.0 9.0 0.00 0.00 0.00 49 1017.2
20260507190440 65 277 5.0 11.0 0.00 0.00 0.00 45 1017.2
20260507184945 65 225 6.0 11.0 0.00 0.00 0.00 50 1017.3
20260507183947 65 286 4.0 10.0 0.00 0.00 0.00 46 1017.4
20260507182945 65 314 4.0 11.0 0.00 0.00 0.00 44 1017.4